• In Deutschland
  • Länderverzeichnis
  • Für 7 Tage
  • Wassertemperatur
  • Satellitenkarten
  • Wetterkarte
  • Widgets
  • user-avatar
    Anmelden

    Stündliche Wetter Salzwedel

    Heute, 24 Juni, Sonntag

    Zeit Temperatur Niederschläge Wind Luftdruck Luftfeuchtigkeit
    00:00 +11°C° 0 mm 4 m/S 763 mmHg 87%
    01:00 +11°C° 0 mm 3 m/S 763 mmHg 88%
    02:00 +11°C° 0 mm 4 m/S 763 mmHg 89%
    03:00 +11°C° 0 mm 4 m/S 762 mmHg 89%
    04:00 +11°C° 0 mm 4 m/S 762 mmHg 89%
    05:00 +11°C° 0 mm 4 m/S 762 mmHg 87%
    06:00 +12°C° 0 mm 4 m/S 762 mmHg 85%
    07:00 +12°C° 0 mm 4 m/S 762 mmHg 81%
    08:00 +13°C° 0,3 mm 4 m/S 762 mmHg 83%
    09:00 +13°C° 0,3 mm 4 m/S 762 mmHg 85%
    10:00 +13°C° 0,3 mm 4 m/S 762 mmHg 87%
    11:00 +13°C° 0,1 mm 4 m/S 762 mmHg 87%
    12:00 +13°C° 0,1 mm 4 m/S 762 mmHg 87%
    13:00 +13°C° 0,1 mm 4 m/S 762 mmHg 87%
    14:00 +14°C° 0,1 mm 4 m/S 762 mmHg 86%
    15:00 +14°C° 0,1 mm 4 m/S 762 mmHg 85%
    16:00 +15°C° 0,1 mm 4 m/S 762 mmHg 84%
    17:00 +15°C° 0,1 mm 4 m/S 762 mmHg 85%
    18:00 +16°C° 0,1 mm 3 m/S 762 mmHg 85%
    19:00 +16°C° 0,1 mm 3 m/S 761 mmHg 86%
    20:00 +14°C° 0 mm 3 m/S 762 mmHg 89%
    21:00 +13°C° 0 mm 3 m/S 762 mmHg 92%
    22:00 +12°C° 0 mm 3 m/S 762 mmHg 95%
    23:00 +12°C° 0 mm 3 m/S 762 mmHg 96%

    Morgen, 25 Juni, Montag

    Zeit Temperatur Niederschläge Wind Luftdruck Luftfeuchtigkeit
    00:00 +12°C° 0 mm 2 m/S 762 mmHg 97%
    01:00 +10°C° 0 mm 2 m/S 762 mmHg 98%
    02:00 +10°C° 0 mm 2 m/S 762 mmHg 98%
    03:00 +10°C° 0 mm 2 m/S 762 mmHg 98%
    04:00 +10°C° 0 mm 2 m/S 762 mmHg 98%
    05:00 +12°C° 0 mm 2 m/S 762 mmHg 95%
    06:00 +12°C° 0 mm 3 m/S 762 mmHg 93%
    07:00 +13°C° 0 mm 3 m/S 762 mmHg 90%
    08:00 +14°C° 0 mm 3 m/S 763 mmHg 85%
    09:00 +16°C° 0 mm 3 m/S 763 mmHg 81%
    10:00 +17°C° 0 mm 3 m/S 763 mmHg 76%
    11:00 +18°C° 0 mm 3 m/S 763 mmHg 73%
    12:00 +19°C° 0 mm 3 m/S 763 mmHg 69%
    13:00 +19°C° 0 mm 4 m/S 763 mmHg 66%
    14:00 +20°C° 0 mm 4 m/S 763 mmHg 66%
    15:00 +20°C° 0 mm 4 m/S 763 mmHg 66%
    16:00 +20°C° 0 mm 4 m/S 763 mmHg 65%
    17:00 +20°C° 0 mm 3 m/S 763 mmHg 68%
    18:00 +19°C° 0 mm 3 m/S 763 mmHg 70%
    19:00 +19°C° 0 mm 3 m/S 763 mmHg 72%
    20:00 +17°C° 0 mm 3 m/S 764 mmHg 79%
    21:00 +16°C° 0 mm 2 m/S 764 mmHg 86%
    22:00 +14°C° 0 mm 2 m/S 764 mmHg 94%
    23:00 +14°C° 0 mm 2 m/S 764 mmHg 95%

    übermorgen, 26 Juni, Dienstag

    Zeit Temperatur Niederschläge Wind Luftdruck Luftfeuchtigkeit
    00:00 +13°C° 0 mm 2 m/S 764 mmHg 96%
    01:00 +13°C° 0 mm 2 m/S 764 mmHg 97%
    02:00 +12°C° 0 mm 2 m/S 764 mmHg 98%
    03:00 +12°C° 0 mm 2 m/S 764 mmHg 98%
    04:00 +12°C° 0 mm 2 m/S 764 mmHg 98%
    05:00 +13°C° 0 mm 2 m/S 764 mmHg 94%
    06:00 +14°C° 0 mm 2 m/S 764 mmHg 90%
    07:00 +16°C° 0 mm 2 m/S 764 mmHg 86%
    08:00 +18°C° 0 mm 2 m/S 765 mmHg 78%
    09:00 +20°C° 0 mm 2 m/S 765 mmHg 71%
    10:00 +21°C° 0 mm 2 m/S 765 mmHg 63%
    11:00 +24°C° 0 mm 2 m/S 764 mmHg 58%
    12:00 +25°C° 0 mm 2 m/S 764 mmHg 53%
    13:00 +26°C° 0 mm 2 m/S 764 mmHg 48%
    14:00 +26°C° 0 mm 2 m/S 764 mmHg 47%
    15:00 +27°C° 0 mm 2 m/S 764 mmHg 46%
    16:00 +27°C° 0 mm 2 m/S 764 mmHg 46%
    17:00 +26°C° 0 mm 2 m/S 764 mmHg 52%
    18:00 +25°C° 0 mm 2 m/S 764 mmHg 59%
    19:00 +24°C° 0 mm 2 m/S 764 mmHg 66%
    20:00 +21°C° 0 mm 2 m/S 764 mmHg 74%
    21:00 +19°C° 0 mm 2 m/S 765 mmHg 81%
    22:00 +17°C° 0 mm 2 m/S 765 mmHg 89%
    23:00 +18°C° 0 mm 1 m/S 765 mmHg 91%

    27 Juni, Mittwoch

    Zeit Temperatur Niederschläge Wind Luftdruck Luftfeuchtigkeit
    00:00 +16°C° 0 mm 1 m/S 765 mmHg 92%
    01:00 +16°C° 0 mm 1 m/S 765 mmHg 93%
    02:00 +15°C° 0 mm 1 m/S 765 mmHg 93%
    03:00 +15°C° 0 mm 1 m/S 765 mmHg 92%
    04:00 +13°C° 0 mm 0 m/S 765 mmHg 91%
    05:00 +15°C° 0 mm 0 m/S 765 mmHg 85%
    06:00 +19°C° 0 mm 1 m/S 766 mmHg 79%
    07:00 +21°C° 0 mm 1 m/S 766 mmHg 73%
    08:00 +21°C° 0,1 mm 2 m/S 766 mmHg 67%
    09:00 +24°C° 0,1 mm 2 m/S 765 mmHg 62%
    10:00 +25°C° 0,1 mm 3 m/S 765 mmHg 56%
    11:00 +26°C° 0,3 mm 3 m/S 765 mmHg 55%
    12:00 +26°C° 0,3 mm 4 m/S 765 mmHg 54%
    13:00 +26°C° 0,3 mm 4 m/S 765 mmHg 54%
    14:00 +27°C° 0,1 mm 5 m/S 765 mmHg 50%
    15:00 +27°C° 0,1 mm 5 m/S 764 mmHg 47%
    16:00 +27°C° 0,1 mm 6 m/S 764 mmHg 44%
    17:00 +26°C° 0 mm 5 m/S 764 mmHg 48%
    18:00 +23°C° 0 mm 5 m/S 764 mmHg 53%
    19:00 +22°C° 0 mm 4 m/S 764 mmHg 58%
    20:00 +20°C° 0 mm 4 m/S 765 mmHg 66%
    21:00 +18°C° 0 mm 3 m/S 765 mmHg 74%
    22:00 +16°C° 0 mm 3 m/S 765 mmHg 82%
    23:00 +14°C° 0 mm 3 m/S 765 mmHg 86%

    28 Juni, Donnerstag

    Zeit Temperatur Niederschläge Wind Luftdruck Luftfeuchtigkeit
    00:00 +13°C° 0 mm 3 m/S 765 mmHg 90%
    01:00 +14°C° 0 mm 2 m/S 765 mmHg 94%
    02:00 +13°C° 0 mm 2 m/S 765 mmHg 95%
    03:00 +13°C° 0 mm 2 m/S 765 mmHg 96%
    04:00 +13°C° 0 mm 2 m/S 764 mmHg 98%
    05:00 +14°C° 0 mm 2 m/S 764 mmHg 92%
    06:00 +16°C° 0 mm 3 m/S 764 mmHg 87%
    07:00 +17°C° 0 mm 3 m/S 764 mmHg 82%
    08:00 +19°C° 0 mm 3 m/S 764 mmHg 75%
    09:00 +21°C° 0 mm 4 m/S 763 mmHg 67%
    10:00 +23°C° 0 mm 4 m/S 763 mmHg 60%
    11:00 +25°C° 0,1 mm 4 m/S 763 mmHg 58%
    12:00 +26°C° 0,1 mm 4 m/S 762 mmHg 56%
    13:00 +26°C° 0,1 mm 5 m/S 761 mmHg 54%
    14:00 +26°C° 0 mm 5 m/S 761 mmHg 54%
    15:00 +26°C° 0 mm 5 m/S 761 mmHg 54%
    16:00 +26°C° 0 mm 6 m/S 760 mmHg 55%
    17:00 +25°C° 0 mm 5 m/S 760 mmHg 58%
    18:00 +23°C° 0 mm 5 m/S 760 mmHg 61%
    19:00 +22°C° 0 mm 5 m/S 760 mmHg 65%
    20:00 +21°C° 0 mm 5 m/S 760 mmHg 68%
    21:00 +20°C° 0 mm 4 m/S 759 mmHg 71%
    22:00 +19°C° 0 mm 4 m/S 759 mmHg 75%
    23:00 +18°C° 0 mm 4 m/S 759 mmHg 74%

    29 Juni, Freitag

    Zeit Temperatur Niederschläge Wind Luftdruck Luftfeuchtigkeit
    00:00 +18°C° 0 mm 4 m/S 759 mmHg 74%
    01:00 +18°C° 0 mm 4 m/S 759 mmHg 73%
    02:00 +17°C° 0 mm 4 m/S 758 mmHg 76%
    03:00 +17°C° 0 mm 4 m/S 758 mmHg 79%
    04:00 +15°C° 0 mm 4 m/S 758 mmHg 81%
    05:00 +17°C° 0 mm 4 m/S 758 mmHg 80%
    06:00 +18°C° 0 mm 4 m/S 757 mmHg 79%
    07:00 +19°C° 0 mm 4 m/S 757 mmHg 77%
    08:00 +21°C° 0 mm 4 m/S 757 mmHg 70%
    09:00 +22°C° 0 mm 4 m/S 757 mmHg 63%
    10:00 +25°C° 0 mm 5 m/S 757 mmHg 56%
    11:00 +25°C° 0 mm 5 m/S 757 mmHg 52%
    12:00 +26°C° 0 mm 5 m/S 756 mmHg 48%
    13:00 +27°C° 0 mm 5 m/S 756 mmHg 44%
    14:00 +27°C° 0 mm 5 m/S 756 mmHg 46%
    15:00 +27°C° 0 mm 5 m/S 756 mmHg 47%
    16:00 +27°C° 0 mm 5 m/S 756 mmHg 49%
    17:00 +25°C° 0,3 mm 5 m/S 756 mmHg 57%
    18:00 +23°C° 0,3 mm 4 m/S 756 mmHg 64%
    19:00 +21°C° 0,3 mm 4 m/S 756 mmHg 71%
    20:00 +19°C° 0 mm 4 m/S 756 mmHg 76%
    21:00 +17°C° 0 mm 4 m/S 756 mmHg 80%
    22:00 +14°C° 0 mm 3 m/S 756 mmHg 84%
    23:00 +13°C° 0 mm 3 m/S 756 mmHg 87%
    Mehr zeigen